Location: Newark
(59.4564°N, 26.6917°E)
Time: 14:34:17
(UTC+00:00)

SR - Pass Details

Date: 27 November 2019
Orbit: 573 x 882 km, 66.7° (Epoch: 04 December)

Event Time Altitude Azimuth Distance (km) Brightness Sun altitude
Rises 19:10:56 0° 312° (NW) 3,484 ? -41.3°
Reaches altitude 10° 19:13:30 10° 307° (NW) 2,551 ? -41.6°
Enters shadow 19:15:37 22° 299° (WNW) 1,833 ? -41.8°
Maximum altitude 19:19:13 50° 234° (SW) 1,109 - -42.2°
Drops below altitude 10° 19:24:49 10° 161° (SSE) 2,487 - -42.8°
Sets 19:27:17 0° 156° (SSE) 3,389 - -43.0°
